Other Public Products
Issued by NWS Charleston, SC

Current Version | Previous Version | Graphics & Text | Print | Product List | Glossary On
Versions: 1 2 3 4 5 6 7 8 9 10 11 12 13 14 15 16 17 18 19 20 21 22 23 24 25 26 27 28 29 30 31 32 33 34 35 36 37 38 39 40 41 42 43 44 45 46 47 48 49 50
325
FPUS82 KCHS 210627
OPUCHS

TEST...KCHS/KSAV Gateway Observations...TEST
National Weather Service Charleston SC
100 AM EST TUE FEB 21 2017

NOTE: "fair" indicates few or no clouds below 12,000 feet with no
significant weather and/or obstructions to visibility.

SCZ050-WAZ558-NCZ071-TXZ119-213-PAZ071-DCZ001-FLZ074-172-MI076-
NYZ176-178-MAZ016-IL014-TNZ027-NJZ106-GAZ044-MD014-210700-
...Gateway Observations for Charleston International...

CITY           SKY/WX    TMP DP  RH WIND       PRES   REMARKS
Chas Airport   MOCLDY    52  50  93 NE3       30.17S
6HR MIN TEMP:  51; 6HR MAX TEMP:  63;

Seattle        CLOUDY    44  42  93 SE5       29.72R
6HR MIN TEMP:  43; 6HR MAX TEMP:  45; 6HR PCP: TRACE;

Charlotte      MOCLDY    55  42  61 E5        30.19S
6HR MIN TEMP:  55; 6HR MAX TEMP:  68;

Dallas DFW     CLEAR     58  56  93 SW10      29.89F
6HR MIN TEMP:  56; 6HR MAX TEMP:  66;

Dallas Love    CLEAR     58  55  90 S3        29.91F
6HR MIN TEMP:  56; 6HR MAX TEMP:  66;

Philladelphia  CLEAR     39  15  37 CALM      30.37R
6HR MIN TEMP:  38; 6HR MAX TEMP:  52;

Wash National  CLOUDY    50  25  37 NE5       30.32S
6HR MIN TEMP:  49; 6HR MAX TEMP:  57;

Baltimore      PTCLDY    45  21  38 NE12      30.31F
6HR MIN TEMP:  45; 6HR MAX TEMP:  55;

Miami          CLEAR     68  58  70 NE5       30.06F
6HR MIN TEMP:  68; 6HR MAX TEMP:  72;

Detroit        CLOUDY    39  30  70 E5        30.09F WCI  36
6HR MIN TEMP:  38; 6HR MAX TEMP:  44;

Newark         PTCLDY    36  15  42 N12       30.37R WCI  28
6HR MIN TEMP:  36; 6HR MAX TEMP:  46;

Laguardia      PTCLDY    40  12  32 NE7       30.37R WCI  35
6HR MIN TEMP:  40; 6HR MAX TEMP:  48;

J F K          PTCLDY    36  13  38 NE9       30.38R WCI  29
6HR MIN TEMP:  36; 6HR MAX TEMP:  47;

Boston Logan   CLEAR     32  16  51 NW8       30.37S WCI  25
6HR MIN TEMP:  32; 6HR MAX TEMP:  40;

Ft. Lauderdale PTCLDY    72  59  63 E12       30.06F
6HR MIN TEMP:  71; 6HR MAX TEMP:  74;

Chicago O`Hare CLOUDY    60  46  59 S13       29.91R
6HR MIN TEMP:  60; 6HR MAX TEMP:  65;

Chicago Midway CLOUDY    60  45  57 S13       29.92S
6HR MIN TEMP:  59; 6HR MAX TEMP:  64;

Houston Bush   PTCLDY    58  57  97 S5        29.98F FOG
6HR MIN TEMP:  58; 6HR MAX TEMP:  61;

Houston Hobby  PTCLDY    57  57 100 S6        29.98F FOG
6HR MIN TEMP:  57; 6HR MAX TEMP:  61; 6HR PCP: TRACE;

Nashville      MOCLDY    59  44  57 SE7       30.02F
6HR MIN TEMP:  59; 6HR MAX TEMP:  69;

Atlanta        CLOUDY    57  45  64 E8        30.12S
6HR MIN TEMP:  57; 6HR MAX TEMP:  69;


$$

GAZ044-118-TXZ119-213-NCZ071-DCZ001-MDZ014-506-PAZ021-071-NJZ106-
NYZ176-178-MAZ106-OHZ011-021-055-MIZ076-KYZ091-ILZ014-INZ047-
MNZ060-210700-
...Gateway Observations for Savannah International...

CITY           SKY/WX    TMP DP  RH WIND       PRES   REMARKS
Savannah Arpt  PTCLDY    57  55  93 CALM      30.15S
6HR MIN TEMP:  55; 6HR MAX TEMP:  63;

Atlanta        CLOUDY    57  45  64 E8        30.12S
6HR MIN TEMP:  57; 6HR MAX TEMP:  69;

Charlotte      MOCLDY    55  42  61 E5        30.19S
6HR MIN TEMP:  55; 6HR MAX TEMP:  68;

Dallas DFW     CLEAR     58  56  93 SW10      29.89F
6HR MIN TEMP:  56; 6HR MAX TEMP:  66;

Houston Bush   PTCLDY    58  57  97 S5        29.98F FOG
6HR MIN TEMP:  58; 6HR MAX TEMP:  61;

Wash National  CLOUDY    50  25  37 NE5       30.32S
6HR MIN TEMP:  49; 6HR MAX TEMP:  57;

Wash Dulles    MOCLDY    45  26  47 E5        30.31R
6HR MIN TEMP:  39; 6HR MAX TEMP:  55;

Baltimore      PTCLDY    45  21  38 NE12      30.31F
6HR MIN TEMP:  45; 6HR MAX TEMP:  55;

Philadelphia   CLEAR     39  15  37 CALM      30.37R
6HR MIN TEMP:  38; 6HR MAX TEMP:  52;

Newark         PTCLDY    36  15  42 N12       30.37R WCI  28
6HR MIN TEMP:  36; 6HR MAX TEMP:  46;

Laguardia      PTCLDY    40  12  32 NE7       30.37R WCI  35
6HR MIN TEMP:  40; 6HR MAX TEMP:  48;

J F K          PTCLDY    36  13  38 NE9       30.38R WCI  29
6HR MIN TEMP:  36; 6HR MAX TEMP:  47;

Boston         CLEAR     32  16  51 NW8       30.37S WCI  25
6HR MIN TEMP:  32; 6HR MAX TEMP:  40;

Pittsburg      CLOUDY    47  31  53 E8        30.13F
6HR MIN TEMP:  46; 6HR MAX TEMP:  54;

Akron          MOCLDY    49  31  49 SE7       30.12S
6HR MIN TEMP:  48; 6HR MAX TEMP:  53;

Cleveland      CLOUDY    47  31  53 S3        30.14S
6HR MIN TEMP:  40; 6HR MAX TEMP:  48;

Cincinnati     CLOUDY    53  39  59 SE9       30.04S
6HR MIN TEMP:  53; 6HR MAX TEMP:  59;

Columbus       CLOUDY    44  41  89 NE3       30.07F
Detroit        CLOUDY    39  30  70 E5        30.09F WCI  36
6HR MIN TEMP:  38; 6HR MAX TEMP:  44;

Chicago O`Hare CLOUDY    60  46  59 S13       29.91R
6HR MIN TEMP:  60; 6HR MAX TEMP:  65;

Minneapolis    CLOUDY    41  37  86 W14       29.83R
6HR MIN TEMP:  41; 6HR MAX TEMP:  55;

Indianapolis   CLOUDY    55  47  74 SE12      30.00F
6HR MIN TEMP:  55; 6HR MAX TEMP:  60;


$$




USA.gov is the U.S. government's official web portal to all federal, state and local government web resources and services.